Flag for Seychelles Weather past 2 weeks in Victoria, Seychelles

Now
81 °F

Passing clouds.


Feels Like: 86 °F
Forecast: 76 / 81 °F
Wind: 9 mph from Southeast

Location: National Airport

Current Time: Jul 5, 2015 at 12:51:35 AM

Latest Report: Jul 5, 2015 at 12:00 AM


Visibility: N/A

Pressure: 29.98 "Hg

Humidity: 84%

Dew point: 75 °F

Location of VictoriaLocation

Historic Weather in Victoria — Graph

°F

Victoria temperature yesterday

Maximum temperature yesterday: 84 °F (at 10:00 AM)
Minimum temperature yesterday: 79 °F (at 1:00 AM)
Average temperature yesterday: 81 °F

Past Weeks' High & Low Weather Summary

 TemperatureHumidityPressure
High86 °F (Jun 20, 12:00 PM)94% (Jun 27, 12:00 AM)30.01 "Hg (Jun 27, 12:00 AM)
Low77 °F (Jun 26, 2:00 AM)66% (Jun 26, 10:00 AM)29.24 "Hg (Jul 1, 2:00 PM)
Average81 °F82%29.91 "Hg
* Reported Midnight between Jun 19 and Jun 20 — Midnight between Jul 4 and Jul 5, Victoria, Weather by CustomWeather, © 2015

Note: Actual official high and low records may vary slightly from our data, if they occured in-between our weather recording intervals... More about our weather records

Advertising

Victoria weather history for previous 24 hours

 ConditionsComfort  
Time TempWeatherWind HumidityBarometerVisibility
12:00 AM
Sun, Jul 5
81 °FPassing clouds.9 mph84%29.98 "HgN/A
11:00 PM
Sat, Jul 4
81 °FPassing clouds.5 mph84%29.98 "HgN/A
10:00 PM81 °FPassing clouds.10 mph84%30.01 "HgN/A
9:00 PM81 °FPassing clouds.7 mph84%29.98 "HgN/A
8:00 PM81 °FPassing clouds.9 mph84%29.98 "HgN/A
7:00 PM81 °FPassing clouds.10 mph84%29.95 "HgN/A
6:00 PM82 °FScattered clouds.13 mph79%29.95 "HgN/A
5:00 PM82 °FScattered clouds.13 mph79%29.95 "HgN/A
4:00 PM82 °FScattered clouds.9 mph79%29.92 "HgN/A
3:00 PM84 °FPartly sunny.8 mph79%29.92 "HgN/A
2:00 PM84 °FScattered clouds.9 mph74%29.95 "HgN/A
1:00 PM84 °FScattered clouds.10 mph79%29.95 "HgN/A
12:00 PM84 °FScattered clouds.12 mph79%29.98 "HgN/A
11:00 AM84 °FScattered clouds.15 mph74%29.98 "HgN/A
10:00 AM84 °FScattered clouds.8 mph74%30.01 "HgN/A
9:00 AM82 °FScattered clouds.12 mph79%30.01 "HgN/A
8:00 AM81 °FPartly sunny.7 mph84%30.01 "HgN/A
7:00 AM79 °FScattered clouds.9 mph89%29.98 "HgN/A
6:00 AM79 °FPassing clouds.7 mph89%29.95 "HgN/A
5:00 AM79 °FPassing clouds.3 mph89%29.95 "HgN/A
4:00 AM79 °FPassing clouds.12 mph89%29.95 "HgN/A
3:00 AM79 °FPassing clouds.7 mph89%29.95 "HgN/A
2:00 AM79 °FPassing clouds.3 mph89%29.95 "HgN/A
1:00 AM79 °FPassing clouds.9 mph89%29.98 "HgN/A
12:00 AM81 °FPassing clouds.7 mph89%29.98 "HgN/A
Weather by CustomWeather, © 2015

See weather overviewHow to use our weather pages